STARLINK-35262, 65847

Orbit data source: Space-Track

STARLINK-35262, 65847 is a payload satellite owned by SpaceX/Seattle (US) in LEO that was launched on Mon, 29 Sep 2025 UTC via an FALCON 9 launch vehicle from the Air Force Western Test Range (AFWTR). Payload-class satellites include a variety of spacecraft equipped with specific instruments for various scientific and technological missions. These include communications satellites like Starlink; space stations such as the ISS; scientific satellites like the Hubble; Earth observation satellites from companies like Planet Labs, Umbra, and HawkEye 360; GPS; miniature CubeSats for education and research; and military/defense satellites.

Loading next visibility...
Identifier
65847, 2025-221AA
Orbit
LEO
Country
Flag of USUS
Related business
Manufacturer
SpaceX/Seattle
Mission
Operational Commercial Communications
Bus & Motor
STARLINK V2MO, Unknown motor
Mass
575 kg wet, ~530 kg dry
Launch date (UTC)
2025-09-29 (1 month ago)
Launch vehicle
FALCON 9
Launch site
Air Force Western Test Range (AFWTR)
Object type
Payload
Rocket body
Debris
Shape & HBR
Box + 2 Pan, 17.7 m
Radar Cross Section
36.964 m²

Expand to show TLE details & history
Last TLE update: 2 days ago

TLE from 2 days ago
0 STARLINK-35262
1 65847U 25221AA  25312.63987508  .00039367  00000-0  13330-2 0  9991
2 65847  53.1589 291.0624 0001374  78.3529 281.7626 15.30231187  7545
Epoch: 2025-11-08T15:21Z
TLE epoch observation values (Epoch: 2025-11-08T15:21:25.206Z)
Latitude
-0.00004°
Longitude
12.64076°
Altitude
475.83 km
Speed
7.629 km/s
True Right ascension
19h 24m 14s
True Declination
0° 00' 00"
Sunlit
Object was in daylight at epoch
Visualization orbit readout
Latitude
Unknown
Longitude
Unknown
Altitude
Unknown
Speed
Unknown
Apparent Right ascension
Unknown
Apparent Declination
Unknown
Sunlit
N/A
Visualization observer readout
Local Sidereal Time
03:46:50
Azimuth
Unknown
Elevation
Unknown
Doppler factor
Unknown
Orbital elements
Apogee altitude
476.32 km
Perigee altitude
474.437 km
Semi-major axis
6,853.516 km
Eccentricity
0.00014
Inclination
53.1589°
RAAN
291.0624°
Arg. of periapsis
78.3529°
True anomaly
281.74719°
Mean anomaly
281.7626°
Eccentric anomaly
281.75489°
Mean motion
3.82537 °/min
Orbital period
94.11 mins
BSTAR
0.001333
Loading maneuver chart data...
Computing Atmospheric mass density...
Loading historical data...
Loading historical data...
Loading historical data...
Loading historical data...
Loading historical data...
Loading historical data...
Loading historical data...

Documentation

Showing up to 5 results
|